Location: Banff
(51.1667°N, 115.5667°W)
Time: 15:04:26
(UTC+00:00)

Tiros 1 - Pass Details

Date: 30 July 2021
Orbit: 630 x 663 km, 48.4° (Epoch: 23 September)

Event Time Altitude Azimuth Distance (km) Brightness Sun altitude
Rises 07:41:43 0° 279° (W) 2,959 10.7 -20.4°
Reaches altitude 10° 07:44:16 10° 269° (W) 2,041 9.7 -20.4°
Enters shadow 07:46:49 25° 243° (WSW) 1,294 8.4 -20.4°
